SCP
0 0 0 0 0 0 0 0 0 0 0 0 0 0 0 0 0 0 0 0 0 0 0 0 0 0 0 0 0 0 0 0 0 0 1 1 1 1
0 0 0 0 0 0 0 0 0 0 0 0 0 0 0 0 0 0 0 0 0 0 0 0 0 0 0 0 0 0 0 0 0 0 0 1 1 1
0 0 0 0 0 0 0 0 0 0 0 0 0 0 0 0 0 0 0 0 0 0 0 0 0 0 0 0 0 0 0 0 0 0 0 1 1 1
1 1 0 0 0 0 0 0 0 0 0 0 0 0 0 0 0 0 0 0 0 0 0 0 0 0 0 0 0 0 0 0 0 0 0 0 0 0
1 1 1 1 1 1 0 0 0 0 0 0 0 0 0 0 0 0 0 0 0 0 0 0 0 0 0 0 0 0 0 0 0 0 0 0 0 0
1 1 1 1 1 1 1 1 1 1 0 0 0 0 0 0 0 0 0 0 0 0 0 0 0 0 0 0 0 0 0 0 0 0 0 0 0 0
1 1 1 1 0 0 0 1 1 1 0 0 0 0 0 0 0 0 0 0 0 0 0 0 0 0 0 0 0 0 0 0 0 0 0 0 0 0
1 1 1 0 0 0 0 0 0 0 0 0 0 0 0 0 0 0 0 0 0 0 0 0 0 0 0 0 0 0 0 0 0 0 0 0 0 0
0 0 0 0 0 0 0 0 0 0 0 0 0 0 0 0 0 0 0 0 0 0 0 0 0 0 0 0 0 0 0 0 0 0 0 0 0 0
0 0 0 0 0 0 0 0 0 0 0 0 0 0 0 0 0 0 0 0 0 0 0 0 0 0 0 0 0 0 0 0 0 0 0 0 0 0
0 0 0 0 0 0 0 0 0 0 0 0 0 0 0 0 0 0 0 0 0 0 0 0 0 0 0 0 0 0 0 0 0 0 0 0 0 0
0 0 0 0 0 0 0 0 0 0 0 0 0 0 0 0 0 0 0 0 0 0 0 0 0 0 0 0 0 0 0 0 0 0 0 0 0 0
0 0 0 0 0 0 0 0 0 0 0 0 0 0 0 0 0 0 0 0 0 0 0 0 0 0 0 0 0 0 0 0 0 0 0 0 0 0
0 0 0 0 0 0 0 0 0 0 0 0 0 0 0 0 0 0 0 0 0 0 0 0 0 0 0 0 0 0 0 0 0 0 0 0 0 0
0 0 0 0 0 0 0 0 0 0 0 0 0 0 0 0 0 0 0 0 0 0 0 0 0 0 0 0 0 0 0 0 0 0 0 0 0 0
0 0 0 0 0 0 0 0 0 0 0 0 0 0 0 0 0 0 0 0 0 0 0 0 0 0 0 0 0 0 0 0 0 0 0 0 0 0
0 0 0 0 0 0 0 0 0 0 0 0 0 0 0 0 0 0 0 0 0 0 0 0 0 0 0 0 0 0 0 0 0 0 0 0 0 0
0 0 0 0 0 0 0 0 0 0 0 0 0 0 0 0 0 0 0 0 0 0 0 0 0 0 0 0 0 0 0 0 0 0 0 0 0 0
0 0 0 0 0 0 0 0 0 0 0 0 0 0 0 0 0 0 0 0 0 0 0 0 0 0 0 0 0 0 0 0 0 0 0 0 0 0
0 0 0 0 0 0 0 0 0 0 0 0 0 0 0 0 0 0 0 0 0 0 0 0 0 0 0 0 0 0 0 0 0 0 0 0 0 0
0 0 0 0 0 0 0 0 0 0 0 0 0 0 0 0 0 0 0 0 0 0 0 0 0 0 0 0 0 0 0 0 0 0 0 0 0 0
0 0 0 0 0 0 0 0 0 0 0 0 0 0 0 0 0 0 0 0 0 0 0 0 0 0 0 0 0 0 0 0 0 0 0 0 0 0
0 0 0 0 0 0 0 0 0 0 0 0 0 0 0 0 0 0 0 0 0 0 0 0 0 0 0 0 0 0 0 0 0 0 0 0 0 0
Wind_Speed
2 2 2 2 2 2 2 2 3 3 4 3 2 2 2 3 6 4 5 10 12 12 12 12 13 13 12 13 14 14 14 13 13 13 14 15 15 16
2 2 2 2 2 2 2 2 2 3 4 3 3 3 4 4 7 5 5 12 12 13 13 13 13 13 13 13 14 14 14 14 14 14 14 14 14 14
2 2 3 2 2 2 1 2 2 2 4 4 2 3 3 4 5 4 4 5 5 12 13 13 13 13 13 13 14 14 14 14 14 14 14 14 14 14
3 2 3 2 2 2 2 2 3 3 3 5 4 3 4 4 4 5 5 5 4 10 13 13 13 13 13 13 13 14 14 14 14 14 14 14 15 15
3 2 3 2 3 2 2 3 3 3 3 4 4 3 3 3 4 5 5 4 5 8 11 12 13 13 14 13 13 14 14 14 14 14 14 14 14 14
2 3 3 3 4 4 3 3 3 3 3 3 4 3 3 3 3 4 5 4 5 6 7 9 11 13 14 14 14 13 12 12 13 13 13 13 12 13
2 2 3 4 5 4 3 2 3 3 3 3 3 3 3 3 3 3 5 5 5 3 4 5 6 6 7 11 12 12 12 12 12 12 12 12 12 13
2 3 3 4 5 6 6 5 4 3 3 3 3 4 5 4 4 4 4 5 5 3 4 7 5 5 5 5 10 13 13 13 13 13 12 12 13 13
2 2 3 3 4 3 4 6 6 7 6 3 4 5 5 4 4 5 5 5 6 5 5 7 4 6 5 7 13 14 13 13 13 12 12 12 13 13
2 2 2 3 3 3 2 2 3 4 5 3 3 4 4 4 4 5 5 6 6 4 3 6 5 5 6 6 10 11 12 13 12 12 13 13 13 13
2 2 2 2 5 5 2 2 3 4 6 7 6 6 7 8 6 3 3 4 6 4 2 3 4 6 5 4 6 10 11 13 14 13 13 13 13 12
2 2 4 4 5 5 2 2 3 4 3 4 5 6 5 6 7 4 3 5 5 4 2 3 4 4 5 4 4 5 6 11 13 14 14 13 13 7
1 2 2 5 6 5 4 2 4 4 2 2 3 3 3 3 3 3 3 4 5 5 3 3 4 4 4 6 5 4 4 5 6 8 11 13 13 9
2 2 2 5 6 6 4 4 6 5 2 2 2 3 3 3 4 4 4 4 5 6 6 4 4 5 5 6 6 4 4 4 5 5 5 10 11 12
2 3 3 4 5 4 5 6 5 2 2 2 3 3 3 4 4 4 4 4 5 5 5 5 5 5 5 6 6 6 6 5 4 4 5 6 6 6
2 2 3 4 3 3 4 3 2 2 2 2 3 3 3 3 3 3 4 4 5 5 4 4 5 5 5 6 6 7 6 5 5 5 5 6 5 5
1 0 1 1 2 2 2 2 2 2 2 2 3 3 3 3 4 3 3 4 4 5 6 5 4 4 5 6 6 6 6 5 5 5 5 6 5 5
1 0 1 1 1 2 2 2 2 2 3 3 3 3 4 4 4 4 3 3 4 5 5 5 5 5 4 4 5 5 5 5 5 5 4 5 6 5
1 1 1 2 2 2 2 2 3 3 3 3 3 3 3 4 4 4 4 4 4 5 5 5 4 4 5 6 5 4 4 5 5 4 4 4 5 6
1 2 2 2 2 2 2 2 3 2 3 3 3 3 3 4 4 4 4 5 5 5 5 4 4 4 5 6 6 6 7 6 4 5 5 4 5 6
1 2 2 2 2 2 2 2 2 2 3 3 3 3 3 3 4 4 4 6 6 5 5 6 6 8 5 4 5 5 5 6 6 5 5 4 4 4
1 2 2 2 2 2 2 2 2 2 3 3 3 3 3 3 4 5 4 5 5 5 6 6 6 5 3 3 5 6 6 6 6 8 7 5 3 3
2 2 2 2 2 2 2 2 3 3 3 3 3 3 4 4 4 4 4 4 4 5 5 5 5 4 4 4 4 5 6 6 4 4 4 6 5 6
Wind_Direction
216 229 249 255 242 234 220 212 215 261 272 268 271 291 309 298 308 307 299 309 314 313 309 306 305 305 305 307 306 303 302 299 295 295 294 291 287 285
221 221 241 256 244 239 234 237 219 231 258 261 264 295 306 309 310 305 298 312 312 311 308 307 304 302 303 303 303 301 299 298 294 292 291 293 293 291
237 229 239 245 250 243 230 235 239 231 256 274 266 283 283 291 304 300 297 294 299 307 309 307 304 303 301 301 300 298 296 297 295 292 293 293 293 291
242 239 249 253 255 253 236 239 241 236 239 268 277 277 276 285 291 298 304 304 297 304 309 310 308 305 301 301 302 300 297 296 295 291 290 290 290 290
243 241 248 242 252 253 249 248 245 250 240 254 273 275 281 292 300 298 294 292 300 304 305 306 308 307 302 302 301 300 298 295 294 292 288 287 289 289
250 239 244 236 241 246 246 249 253 257 251 257 270 281 282 288 291 297 304 302 304 305 301 305 309 310 307 305 303 302 299 299 298 297 296 292 290 290
279 265 259 261 265 261 260 249 251 254 259 263 271 285 287 302 301 296 302 308 299 289 301 301 303 300 301 304 306 302 301 302 302 300 298 297 293 291
280 285 277 277 281 285 289 284 276 266 262 263 274 280 283 285 288 295 302 310 305 302 309 300 296 293 294 291 300 303 303 302 300 299 298 298 296 294
272 289 295 291 292 280 288 293 293 295 288 277 271 274 281 286 290 294 292 290 282 290 301 291 288 289 291 298 305 305 307 306 303 302 302 301 297 294
273 268 276 288 287 278 280 294 291 295 297 287 261 272 281 283 277 279 279 286 283 280 268 279 287 289 296 294 301 305 314 314 309 307 305 302 298 296
296 293 286 279 299 301 298 293 299 302 309 311 306 308 312 314 312 309 304 301 297 290 266 270 285 297 293 284 293 305 314 315 310 305 305 305 304 301
304 305 305 303 311 318 295 274 285 293 303 312 316 319 318 316 318 306 291 291 293 289 276 288 290 309 303 284 285 296 304 307 308 306 304 303 303 301
280 290 297 314 318 318 313 282 294 303 293 295 305 310 314 313 310 301 290 280 284 280 284 292 288 289 278 294 298 291 293 300 306 305 304 303 302 298
270 272 283 313 320 320 319 320 320 322 312 312 314 312 314 310 303 297 291 282 273 275 280 275 275 282 287 290 291 299 302 296 296 299 300 302 299 298
263 281 306 322 323 320 330 331 327 325 317 313 308 304 300 295 299 301 300 298 293 285 284 276 273 280 276 279 287 294 302 301 293 296 302 301 297 298
302 305 319 328 330 326 326 327 324 305 301 296 295 296 301 304 305 306 310 317 311 304 292 282 279 278 280 280 281 290 294 294 304 302 300 298 296 289
285 325 343 335 336 327 317 315 315 315 315 306 304 305 305 306 307 305 304 309 304 308 316 317 303 284 273 276 282 286 292 292 292 301 306 305 302 299
301 283 288 292 297 304 307 306 305 308 308 306 303 301 303 306 309 310 308 303 305 307 308 313 322 322 314 288 260 278 290 290 297 303 304 303 307 308
241 242 259 265 273 281 286 288 292 297 299 300 300 300 301 303 305 309 310 307 305 306 307 311 317 318 315 313 303 284 294 303 306 306 301 292 298 305
238 244 254 259 262 269 278 284 289 299 303 302 303 304 303 304 306 305 304 305 305 304 306 309 308 303 295 294 295 296 297 292 294 298 299 293 292 299
257 257 259 259 258 263 271 276 278 284 294 300 301 302 302 302 302 302 302 305 305 303 304 303 297 303 292 290 291 296 300 302 297 293 298 299 304 313
258 262 268 270 267 269 276 280 281 282 289 291 295 298 299 299 299 300 302 303 302 300 298 298 306 313 309 296 294 300 307 316 318 315 308 287 285 302
257 263 266 270 271 273 275 278 282 284 284 286 290 293 295 295 295 295 296 296 300 302 305 308 312 314 307 296 294 300 306 313 320 332 331 330 316 301